Volver al catálogo

COSMOS 1867 COOLANT

ActivoLEO
NORAD 39656·DEBRIS·🇷🇺 Russia

Lanzado Jul 10, 1987 desde Baikonur Cosmodrome

Loading…

Próximos Pases (próximas 24 horas)

TLE

ActualizadoSource: Space-Track

Época: Sep 14, 2026, 05:26 UTC

1 39656U 87060T   26257.22649060  .00000118  00000-0  78179-4 0  9997
2 39656  65.0057 118.2736 0018980 280.5544  79.3404 14.33960014649441

Sigue COSMOS 1867 COOLANT en tiempo real con AllMySat

Download on the App Store